Portada
METAR-TAF:

METAR-TAF

Aeroports :

Chester, Connecticut, Estats Units d'Amèrica

latitud: 41-23-02N, longitud: 072-30-21W, altitud: 127 m

Observació

L'informe es va fer fa 20 minuts, a les 17:15 UTC
Vent 8 kt del Nord/Nord-Est
Temperatura 3°C
Humitat 52%
Pressió 1026 hPa
Visibilitat: 16.1 km
Cel cobert a una alçada de 3600 ft

METAR: KSNC 171715Z AUTO 03008KT 10SM OVC036 03/M06 A3030 RMK AO2

Hora: 12:35 (17:35 UTC)


TAF: manca

Observacions i pronòstics meteorològics de més de 4000 aeroports (METAR i TAF).

Les estacions disponibles són els punts grocs i vermells al mapa.

Posi el ratolí al punt desitjat per veure el nom de l'estació.

Feu clic per veure les observacions i els pronòstics meteorològics.

Per canviar el mapa: feu clic els botons verds amb una creu de color negre per apropar; al botó verd amb un guió per allunyar la imatge; o en les fletxes verdes per a mapes adjacents.


METAR-TAF: